SCP
-0 0 -0 -0 -0 -0 -0 -0 -0 0 -0 -0 -0 -0 0 0 0 0 0 0 0 0 0 0 0 -0 -0 -0 -0 -0 0 -0
0 0 0 0 0 0 0 -0 -0 -0 -0 -0 0 0 0 0 0 -0 -0 -0 -0 -0 -0 -0 -0 -0 -0 -0 -0 -0 -0 -0
0 1 0 0 0 0 0 0 0 0 0 0 -0 -0 -0 -0 -0 -0 -0 -0 -0 -0 -0 -0 -0 -0 -0 0 0 -0 -0 0
1 1 0 0 1 0 0 0 0 0 0 0 0 0 0 -0 -0 -0 0 0 0 0 0 0 -0 -0 -0 0 0 0 0 0
0 0 0 0 0 0 0 0 0 0 0 0 0 0 0 0 0 0 0 0 0 0 0 0 0 0 0 0 0 0 0 0
0 1 0 0 0 0 0 0 1 0 0 0 0 0 0 0 0 0 0 0 0 0 0 0 0 0 0 0 0 0 0 0
0 0 0 0 0 0 0 1 1 0 0 0 0 0 0 0 0 0 0 0 0 0 0 0 0 0 0 0 0 0 0 0
0 0 0 0 0 0 0 1 0 0 0 0 0 0 0 0 0 0 0 0 0 0 0 0 0 0 0 0 0 0 0 0
0 1 1 1 1 0 0 0 0 0 0 0 0 1 0 0 0 0 1 0 0 0 0 0 0 0 0 0 0 0 0 0
0 1 1 1 2 1 1 1 0 0 0 0 0 1 1 0 1 1 1 0 0 0 0 0 0 0 1 1 0 0 0 1
1 1 1 2 5 2 1 3 2 0 1 1 1 1 1 2 1 2 1 1 2 1 1 1 1 1 1 0 0 1 1 1
1 0 0 1 5 4 2 1 5 3 1 1 1 2 1 3 4 3 2 3 2 2 1 2 2 2 1 1 1 1 1 1
1 2 3 3 5 4 5 2 3 3 3 2 2 3 3 3 3 5 4 3 2 1 2 2 1 1 1 1 0 1 1 2
0 2 7 6 6 6 5 5 3 3 5 4 3 3 6 4 4 6 3 3 3 2 2 3 2 1 1 1 1 2 3 3
0 2 4 8 5 9 6 6 6 6 3 4 5 3 6 8 7 6 6 3 6 4 4 4 3 2 2 2 1 1 4 4
0 0 1 4 9 7 9 7 5 5 5 4 3 4 6 8 6 6 4 6 5 6 5 5 4 5 3 3 5 3 6 5
0 0 0 1 4 7 6 7 6 4 3 5 4 3 6 7 7 7 5 4 6 7 6 6 7 5 5 6 5 4 3 3
0 0 0 0 0 3 4 5 5 5 6 5 5 6 5 6 7 6 5 6 6 7 6 7 12 8 6 7 6 6 3 2
0 0 0 0 0 1 2 3 3 6 6 4 5 5 8 5 5 6 6 5 6 7 7 8 7 11 9 8 9 6 5 4
Wind_Speed_500mb
43 46 52 50 48 42 39 37 36 37 34 30 26 25 24 23 21 20 18 15 14 12 10 10 9 9 8 6 6 6 6 6
42 41 51 47 46 43 39 38 39 40 36 30 26 24 23 22 21 20 18 16 13 10 8 7 6 6 5 4 5 5 6 7
42 37 48 47 44 41 40 42 40 43 39 31 28 26 24 22 20 18 17 15 13 10 8 6 4 3 2 4 6 7 7 8
36 34 46 49 45 40 40 43 42 42 39 33 29 25 24 22 21 20 17 14 12 10 9 7 4 1 2 5 7 11 13 12
35 27 39 48 47 45 45 45 44 44 39 35 32 31 28 25 23 21 18 16 13 11 10 7 5 4 5 7 10 16 20 20
36 34 28 47 47 45 46 51 49 46 42 39 36 35 33 30 27 26 23 22 18 15 13 10 7 7 8 10 9 18 29 21
37 35 35 36 40 42 40 52 54 54 52 48 44 41 37 33 31 29 28 25 23 20 17 14 11 11 11 6 18 15 21 20
38 40 39 39 38 39 40 41 53 56 55 53 50 49 44 39 29 24 30 30 28 24 21 18 11 10 5 5 13 12 13 14
44 44 45 40 47 41 47 43 47 55 57 58 56 52 49 45 37 34 37 26 17 22 20 21 8 7 11 22 20 23 23 23
39 47 53 42 47 46 52 48 40 53 51 56 56 57 53 51 43 45 35 28 28 17 17 15 21 30 28 16 13 13 16 22
19 44 29 33 47 50 61 46 45 39 47 43 47 50 53 53 51 47 45 41 38 28 23 27 23 27 26 17 19 31 33 27
26 16 42 43 49 53 47 61 47 50 53 56 51 52 56 57 59 59 54 58 59 53 50 42 39 43 39 36 35 31 33 32
29 32 34 39 45 53 55 59 62 51 57 57 55 59 66 64 61 67 65 61 57 52 47 45 45 43 42 40 32 27 28 32
31 33 24 44 48 52 56 56 64 62 60 60 61 59 64 73 71 73 75 71 59 58 63 57 53 48 42 38 38 41 46 42
17 20 41 32 50 51 54 51 52 54 76 73 59 66 67 73 78 72 74 71 61 64 67 64 50 51 51 45 46 46 47 43
14 17 25 42 26 47 47 48 50 61 58 64 78 60 72 70 81 82 73 85 72 69 76 72 53 57 55 45 41 39 36 44
21 18 18 28 36 40 44 54 50 51 52 60 58 68 67 73 81 86 79 88 71 79 79 77 58 67 63 54 56 50 50 42
23 14 18 20 15 31 45 42 49 56 53 53 60 65 70 77 80 88 82 84 87 80 86 83 78 64 70 60 53 47 23 40
22 27 21 15 21 19 23 40 50 47 56 65 59 56 75 72 74 81 87 88 100 93 81 77 72 76 79 61 45 53 57 48
Wind_Direction_500mb
152 164 163 164 166 171 173 175 174 175 172 167 164 165 166 167 169 171 166 158 154 150 138 123 113 107 103 94 80 61 41 45
152 172 166 168 170 172 173 178 177 178 178 176 174 174 173 176 179 179 173 169 166 161 148 140 127 115 106 89 65 46 24 28
160 176 170 170 173 176 179 178 181 179 181 184 187 186 183 185 185 189 189 184 178 175 172 174 163 128 47 27 7 8 2 0
171 194 177 174 176 180 183 182 183 184 186 188 192 197 195 195 195 198 199 201 203 199 197 200 210 241 324 340 349 350 345 337
165 186 181 180 180 182 184 186 186 188 193 198 198 198 201 204 206 209 212 215 217 216 220 224 234 270 310 327 347 358 349 331
171 195 191 183 186 186 189 188 188 193 199 204 206 204 205 209 211 214 216 220 220 223 226 235 253 284 306 325 332 2 354 347
176 187 186 185 192 185 192 195 195 197 201 205 206 207 208 213 217 226 222 224 224 226 231 235 250 269 295 325 6 343 351 4
183 188 199 189 207 182 185 203 203 205 207 209 211 209 209 209 212 215 230 234 235 235 234 234 262 275 315 41 336 293 317 333
188 189 199 203 206 189 190 217 211 210 210 212 213 216 210 209 197 223 223 237 235 242 233 238 227 313 280 242 234 226 238 236
197 192 188 204 213 207 188 220 224 210 216 218 217 220 219 210 204 209 217 213 243 258 233 216 211 215 237 255 248 247 255 247
245 175 180 196 222 220 197 199 222 221 214 225 226 230 227 221 207 221 213 206 209 222 217 233 234 236 248 232 232 233 249 249
258 197 226 196 226 231 218 197 202 216 211 222 220 232 239 230 219 219 226 219 208 212 212 220 220 238 249 250 247 242 243 257
233 232 206 201 216 234 238 218 204 213 219 214 228 219 239 238 231 221 221 232 235 229 237 238 242 246 253 247 248 233 230 239
243 232 229 228 215 234 239 241 221 210 219 222 216 227 230 242 236 233 230 233 235 230 230 235 235 239 239 239 231 231 240 240
215 247 231 224 224 216 239 238 234 230 227 224 225 221 230 236 243 240 244 233 232 234 230 233 236 234 238 234 235 233 242 249
262 256 242 233 216 220 217 225 233 229 238 237 225 233 227 236 242 243 244 235 219 234 231 233 235 233 235 222 234 241 239 252
233 240 254 239 230 229 226 229 232 245 246 241 244 231 233 232 240 246 251 234 227 228 230 227 230 228 227 224 224 240 251 256
217 248 257 262 254 236 231 236 240 237 241 239 240 238 239 235 236 247 249 236 234 229 235 238 219 220 231 231 234 228 222 242
247 263 256 260 263 261 268 240 233 247 246 242 240 244 238 245 246 244 248 240 239 229 231 231 233 232 231 226 226 225 231 241
Wind_Speed_850mb
43 46 52 50 48 42 39 37 36 37 34 30 26 25 24 23 21 20 18 15 14 12 10 10 9 9 8 6 6 6 6 6
42 41 51 47 46 43 39 38 39 40 36 30 26 24 23 22 21 20 18 16 13 10 8 7 6 6 5 4 5 5 6 7
42 37 48 47 44 41 40 42 40 43 39 31 28 26 24 22 20 18 17 15 13 10 8 6 4 3 2 4 6 7 7 8
36 34 46 49 45 40 40 43 42 42 39 33 29 25 24 22 21 20 17 14 12 10 9 7 4 1 2 5 7 11 13 12
35 27 39 48 47 45 45 45 44 44 39 35 32 31 28 25 23 21 18 16 13 11 10 7 5 4 5 7 10 16 20 20
36 34 28 47 47 45 46 51 49 46 42 39 36 35 33 30 27 26 23 22 18 15 13 10 7 7 8 10 9 18 29 21
37 35 35 36 40 42 40 52 54 54 52 48 44 41 37 33 31 29 28 25 23 20 17 14 11 11 11 6 18 15 21 20
38 40 39 39 38 39 40 41 53 56 55 53 50 49 44 39 29 24 30 30 28 24 21 18 11 10 5 5 13 12 13 14
44 44 45 40 47 41 47 43 47 55 57 58 56 52 49 45 37 34 37 26 17 22 20 21 8 7 11 22 20 23 23 23
39 47 53 42 47 46 52 48 40 53 51 56 56 57 53 51 43 45 35 28 28 17 17 15 21 30 28 16 13 13 16 22
19 44 29 33 47 50 61 46 45 39 47 43 47 50 53 53 51 47 45 41 38 28 23 27 23 27 26 17 19 31 33 27
26 16 42 43 49 53 47 61 47 50 53 56 51 52 56 57 59 59 54 58 59 53 50 42 39 43 39 36 35 31 33 32
29 32 34 39 45 53 55 59 62 51 57 57 55 59 66 64 61 67 65 61 57 52 47 45 45 43 42 40 32 27 28 32
31 33 24 44 48 52 56 56 64 62 60 60 61 59 64 73 71 73 75 71 59 58 63 57 53 48 42 38 38 41 46 42
17 20 41 32 50 51 54 51 52 54 76 73 59 66 67 73 78 72 74 71 61 64 67 64 50 51 51 45 46 46 47 43
14 17 25 42 26 47 47 48 50 61 58 64 78 60 72 70 81 82 73 85 72 69 76 72 53 57 55 45 41 39 36 44
21 18 18 28 36 40 44 54 50 51 52 60 58 68 67 73 81 86 79 88 71 79 79 77 58 67 63 54 56 50 50 42
23 14 18 20 15 31 45 42 49 56 53 53 60 65 70 77 80 88 82 84 87 80 86 83 78 64 70 60 53 47 23 40
22 27 21 15 21 19 23 40 50 47 56 65 59 56 75 72 74 81 87 88 100 93 81 77 72 76 79 61 45 53 57 48
Wind_Direction_850mb
152 164 163 164 166 171 173 175 174 175 172 167 164 165 166 167 169 171 166 158 154 150 138 123 113 107 103 94 80 61 41 45
152 172 166 168 170 172 173 178 177 178 178 176 174 174 173 176 179 179 173 169 166 161 148 140 127 115 106 89 65 46 24 28
160 176 170 170 173 176 179 178 181 179 181 184 187 186 183 185 185 189 189 184 178 175 172 174 163 128 47 27 7 8 2 0
171 194 177 174 176 180 183 182 183 184 186 188 192 197 195 195 195 198 199 201 203 199 197 200 210 241 324 340 349 350 345 337
165 186 181 180 180 182 184 186 186 188 193 198 198 198 201 204 206 209 212 215 217 216 220 224 234 270 310 327 347 358 349 331
171 195 191 183 186 186 189 188 188 193 199 204 206 204 205 209 211 214 216 220 220 223 226 235 253 284 306 325 332 2 354 347
176 187 186 185 192 185 192 195 195 197 201 205 206 207 208 213 217 226 222 224 224 226 231 235 250 269 295 325 6 343 351 4
183 188 199 189 207 182 185 203 203 205 207 209 211 209 209 209 212 215 230 234 235 235 234 234 262 275 315 41 336 293 317 333
188 189 199 203 206 189 190 217 211 210 210 212 213 216 210 209 197 223 223 237 235 242 233 238 227 313 280 242 234 226 238 236
197 192 188 204 213 207 188 220 224 210 216 218 217 220 219 210 204 209 217 213 243 258 233 216 211 215 237 255 248 247 255 247
245 175 180 196 222 220 197 199 222 221 214 225 226 230 227 221 207 221 213 206 209 222 217 233 234 236 248 232 232 233 249 249
258 197 226 196 226 231 218 197 202 216 211 222 220 232 239 230 219 219 226 219 208 212 212 220 220 238 249 250 247 242 243 257
233 232 206 201 216 234 238 218 204 213 219 214 228 219 239 238 231 221 221 232 235 229 237 238 242 246 253 247 248 233 230 239
243 232 229 228 215 234 239 241 221 210 219 222 216 227 230 242 236 233 230 233 235 230 230 235 235 239 239 239 231 231 240 240
215 247 231 224 224 216 239 238 234 230 227 224 225 221 230 236 243 240 244 233 232 234 230 233 236 234 238 234 235 233 242 249
262 256 242 233 216 220 217 225 233 229 238 237 225 233 227 236 242 243 244 235 219 234 231 233 235 233 235 222 234 241 239 252
233 240 254 239 230 229 226 229 232 245 246 241 244 231 233 232 240 246 251 234 227 228 230 227 230 228 227 224 224 240 251 256
217 248 257 262 254 236 231 236 240 237 241 239 240 238 239 235 236 247 249 236 234 229 235 238 219 220 231 231 234 228 222 242
247 263 256 260 263 261 268 240 233 247 246 242 240 244 238 245 246 244 248 240 239 229 231 231 233 232 231 226 226 225 231 241